ONEWEB-0431, 51630

Orbit data source: Space-Track

ONEWEB-0431, 51630 is a payload satellite owned by One Web (NAA) (UK) in LEO that was launched on Thu, 10 Feb 2022 UTC via a SOYUZ-ST-B launch vehicle from the French Guiana (FRGUI). Payload-class satellites include a variety of spacecraft equipped with specific instruments for various scientific and technological missions. These include communications satellites like Starlink; space stations such as the ISS; scientific satellites like the Hubble; Earth observation satellites from companies like Planet Labs, Umbra, and HawkEye 360; GPS; miniature CubeSats for education and research; and military/defense satellites.

Loading next visibility...
Identifier
51630, 2022-012J
Orbit
LEO
Country
Flag of UKUK
Related business
Manufacturer
One Web
Mission
Operational Commercial Communications
Bus & Motor
ARROW, Unknown motor
Mass
148 kg wet, ~140 kg dry
Launch date (UTC)
2022-02-10 (4 years ago)
Launch vehicle
SOYUZ-ST-B
Launch site
French Guiana (FRGUI)
Object type
Payload
Rocket body
Debris
Shape & HBR
Trap Box + 2 Pan, 6.7 m
Radar Cross Section
3.464 m², Large (>1 m²)

Expand to show TLE details & history
Last TLE update: 2 days ago

TLE from 2 days ago
0 ONEWEB-0431
1 51630U 22012J   26171.34087338 -.00000442  00000-0 -13008-2 0  9991
2 51630  87.8831  35.6386 0001691 103.6534 256.4782 13.10442296209751
Epoch: 2026-06-20T08:10Z
TLE epoch observation values (Epoch: 2026-06-20T08:10:51.460Z)
Latitude
0.00003°
Longitude
4.36729°
Altitude
1,224.637 km
Speed
7.242 km/s
True Right ascension
02h 22m 33s
True Declination
0° 00' 00"
Sunlit
Object was in daylight at epoch
Visualization orbit readout
Latitude
Unknown
Longitude
Unknown
Altitude
Unknown
Speed
Unknown
Apparent Right ascension
Unknown
Apparent Declination
Unknown
Sunlit
N/A
Visualization observer readout
Local Sidereal Time
21:26:19
Azimuth
Unknown
Elevation
Unknown
Doppler factor
Unknown
Orbital elements
Apogee altitude
1,219.853 km
Perigee altitude
1,217.284 km
Semi-major axis
7,596.705 km
Eccentricity
0.00017
Inclination
87.8831°
RAAN
35.6386°
Arg. of periapsis
103.6534°
True anomaly
256.45936°
Mean anomaly
256.4782°
Eccentric anomaly
256.46878°
Mean motion
3.27797 °/min
Orbital period
109.82 mins
BSTAR
-0.0013008
Loading maneuver chart data...
Computing Atmospheric mass density...
Loading historical data...
Loading historical data...
Loading historical data...
Loading historical data...
Loading historical data...
Loading historical data...
Loading historical data...

Documentation

Showing up to 5 results
|